Location: Peterborough
(44.3091°N, 78.3197°W)
Time: 06:08:01
(UTC-04:00)

Vanguard 1 Rocket - Pass Details

Date: 25 March 2023
Orbit: 655 x 4220 km, 34.3° (Epoch: 04 June)

Event Time Altitude Azimuth Distance (km) Brightness Sun altitude
Rises 23:44:12 0° 232° (SW) 8,433 12.3 -39.3°
Reaches altitude 10° 23:50:41 10° 227° (SW) 7,245 11.8 -39.9°
Enters shadow 00:02:12 31° 211° (SSW) 5,050 10.8 -40.9°
Maximum altitude 00:11:58 47° 163° (SSE) 3,618 - -41.6°
Drops below altitude 10° 00:24:23 10° 95° (E) 4,422 - -42.4°
Sets 00:27:14 0° 89° (E) 5,051 - -42.5°
